Papa, Hungary

5:38 PM CEST on May 28, 2017 (GMT +0200)
Papa

Weather History for LHPA - September, 2013

Change the Weather History Date:

Wednesday, September 18, 2013

  Actual Average Record
Temperature  
Mean Temperature 51 °F -  
Max Temperature 60 °F - - ()
Min Temperature 42 °F - - ()
Degree Days  
Heating Degree Days 14    
Growing Degree Days 1 (Base 50)    
Moisture  
Dew Point 48 °F    
Average Humidity 84    
Maximum Humidity 100    
Minimum Humidity 63    
Precipitation  
Precipitation 0.00 in - - ()
Sea Level Pressure  
Sea Level Pressure 29.63 in    
Wind  
Wind Speed 8 mph ()    
Max Wind Speed 16 mph    
Max Gust Speed 25 mph    
Visibility 6.2 miles    
Events Rain    
T = Trace of Precipitation, MM = Missing Value Source: Averaged Metar Reports

Daily Weather History Graph

Daily Weather History Graph

Search for Another Location

Airport or City:

Trip Planner

Search our weather history database for the weather conditions in past years. The results will help you decide how hot, cold, wet, or windy it might be!

Date:

Astronomy

Sep. 18, 2013 Rise Set
Actual Time 6:31 AM CEST 6:55 PM CEST
Civil Twilight 6:00 AM CEST 7:26 PM CEST
Nautical Twilight 5:24 AM CEST 8:02 PM CEST
Astronomical Twilight 4:46 AM CEST 8:40 PM CEST
Moon 6:08 PM CEST (9/18) 5:11 AM CEST (9/18)
Length of Visible Light 13h 25m
Length of Day
12h 24m
Waxing Gibbous, 99% of the Moon is Illuminated
Sep 18
Waxing Gibbous
Sep 19
Full
Sep 27
Last Quarter
Oct 5
New
Oct 12
First Quarter

Hourly Weather History & Observations

Time (CEST) Temp. Windchill Dew Point Humidity Pressure Visibility Wind Dir Wind Speed Gust Speed Precip Events Conditions
12:15 AM 44.6 °F 42.3 °F 42.8 °F 93% 29.74 in - WSW 4.5 mph - N/A   Clear
12:45 AM 44.6 °F 42.3 °F 42.8 °F 93% 29.74 in - SSW 4.5 mph - N/A   Clear
1:15 AM 46.4 °F 43.0 °F 44.6 °F 93% 29.74 in - WSW 6.7 mph - N/A   Clear
1:45 AM 46.4 °F 43.0 °F 44.6 °F 93% 29.74 in - WSW 6.7 mph - N/A   Clear
2:15 AM 46.4 °F 43.0 °F 44.6 °F 93% 29.74 in - West 6.7 mph - N/A   Clear
2:45 AM 46.4 °F - 44.6 °F 93% 29.74 in - WSW 2.2 mph - N/A   Clear
3:15 AM 42.8 °F 40.2 °F 42.8 °F 100% 29.71 in - SSE 4.5 mph - N/A   Clear
3:45 AM 42.8 °F 40.2 °F 42.8 °F 100% 29.71 in - South 4.5 mph - N/A   Clear
4:15 AM 44.6 °F 40.8 °F 44.6 °F 100% 29.71 in - South 6.7 mph - N/A   Clear
4:45 AM 42.8 °F 40.2 °F 42.8 °F 100% 29.71 in - South 4.5 mph - N/A   Clear
5:15 AM 44.6 °F 42.3 °F 44.6 °F 100% 29.68 in - South 4.5 mph - N/A   Clear
5:45 AM 44.6 °F 40.8 °F 44.6 °F 100% 29.68 in - SSW 6.7 mph - N/A   Clear
6:15 AM 44.6 °F 40.8 °F 44.6 °F 100% 29.68 in - SSW 6.7 mph - N/A   Clear
6:45 AM 44.6 °F 40.8 °F 42.8 °F 93% 29.68 in - South 6.7 mph - N/A   Clear
7:15 AM 46.4 °F 43.0 °F 44.6 °F 93% 29.68 in - South 6.7 mph - N/A   Clear
7:45 AM 48.2 °F - 46.4 °F 93% 29.68 in - South 6.7 mph - N/A   Clear
8:15 AM 50.0 °F - 46.4 °F 87% 29.68 in - SSW 6.7 mph - N/A   Clear
8:45 AM 50.0 °F - 46.4 °F 87% 29.65 in - South 8.9 mph - N/A   Clear
9:15 AM 50.0 °F - 46.4 °F 87% 29.65 in - South 8.9 mph - N/A   Clear
9:45 AM 51.8 °F - 44.6 °F 76% 29.65 in - South 8.9 mph - N/A   Clear
10:15 AM 53.6 °F - 44.6 °F 72% 29.65 in - South 11.2 mph - N/A   Clear
10:45 AM 53.6 °F - 46.4 °F 77% 29.65 in 6.2 mi South 11.2 mph - N/A   Mostly Cloudy
10:54 AM 53.6 °F - 46.4 °F 77% 29.65 in 6.2 mi South 8.9 mph - N/A Rain Light Rain
11:15 AM 55.4 °F - 46.4 °F 72% 29.65 in 6.2 mi South 11.2 mph - N/A Rain Light Rain
11:17 AM 55.4 °F - 46.4 °F 72% 29.65 in 6.2 mi South 11.2 mph - N/A   Mostly Cloudy
11:45 AM 57.2 °F - 44.6 °F 63% 29.62 in 6.2 mi South 15.7 mph - N/A   Mostly Cloudy
12:15 PM 59.0 °F - 46.4 °F 63% 29.59 in - SSW 15.7 mph - N/A   Clear
12:45 PM 57.2 °F - 46.4 °F 67% 29.59 in 6.2 mi SSW 13.4 mph - N/A   Mostly Cloudy
1:15 PM 59.0 °F - 46.4 °F 63% 29.62 in 6.2 mi SSW 15.7 mph - N/A   Mostly Cloudy
1:45 PM 59.0 °F - 48.2 °F 67% 29.59 in 6.2 mi SSW 13.4 mph - N/A   Mostly Cloudy
2:15 PM 60.8 °F - 48.2 °F 63% 29.59 in 6.2 mi SSW 11.2 mph - N/A   Mostly Cloudy
2:40 PM 60.8 °F - 48.2 °F 63% 29.59 in 6.2 mi SSW 11.2 mph - N/A Rain Light Rain
2:45 PM 60.8 °F - 50.0 °F 68% 29.59 in 6.2 mi SSW 11.2 mph - N/A Rain Light Rain
3:15 PM 60.8 °F - 50.0 °F 68% 29.59 in - SW 13.4 mph - N/A   Clear
3:45 PM 60.8 °F - 51.8 °F 72% 29.59 in 6.2 mi SSW 15.7 mph - N/A Rain Light Rain
4:15 PM 59.0 °F - 50.0 °F 72% 29.56 in 6.2 mi SSW 13.4 mph - N/A Rain Light Rain
4:45 PM 59.0 °F - 53.6 °F 82% 29.56 in 6.2 mi South 13.4 mph - N/A Rain Light Rain
5:15 PM 59.0 °F - 51.8 °F 77% 29.56 in 6.2 mi South 15.7 mph - N/A Rain Light Rain
5:45 PM 57.2 °F - 51.8 °F 82% 29.56 in 6.2 mi South 15.7 mph - N/A Rain Light Rain
6:15 PM 57.2 °F - 51.8 °F 82% 29.59 in 6.2 mi SSW 8.9 mph - N/A Rain Light Rain
6:45 PM 55.4 °F - 53.6 °F 94% 29.59 in 6.2 mi SSW 6.7 mph - N/A Rain Light Rain
7:15 PM 55.4 °F - 53.6 °F 94% 29.56 in 6.2 mi South 11.2 mph - N/A Rain Light Rain
7:45 PM 55.4 °F - 53.6 °F 94% 29.56 in 6.2 mi South 11.2 mph - N/A Rain Light Rain
8:15 PM 55.4 °F - 53.6 °F 94% 29.59 in 6.2 mi SSW 8.9 mph - N/A Rain Light Rain
8:45 PM 55.4 °F - 51.8 °F 88% 29.56 in 6.2 mi South 11.2 mph 24.6 mph N/A Rain Light Rain
9:15 PM 57.2 °F - 51.8 °F 82% 29.56 in 6.2 mi SSW 13.4 mph - N/A Rain Light Rain
9:45 PM 55.4 °F - 53.6 °F 94% 29.56 in 6.2 mi South 15.7 mph - N/A Rain Light Rain
10:15 PM 55.4 °F - 53.6 °F 94% 29.56 in 6.2 mi South 13.4 mph - N/A Rain Light Rain
10:45 PM 55.4 °F - 51.8 °F 88% 29.56 in 6.2 mi South 11.2 mph - N/A Rain Light Rain
11:15 PM 55.4 °F - 53.6 °F 94% 29.56 in 6.2 mi SSW 11.2 mph - N/A Rain Light Rain
11:42 PM 55.4 °F - 51.8 °F 88% 29.56 in - South 11.2 mph - N/A   Clear
11:45 PM 55.4 °F - 51.8 °F 88% 29.56 in - South 11.2 mph - N/A   Clear